Regional Weather Roundup
Issued by NWS

Home | Current Version | Previous Version | Text Only | Print | Product List | Glossary On
Versions: 1 2 3 4 5 6 7 8 9 10 11 12 13 14 15 16 17 18 19 20 21 22 23 24 25 26 27 28 29 30 31 32 33 34 35 36 37 38 39 40 41 42 43 44 45 46 47 48 49 50
000
ASUS43 KFSD 031510
RWRSD

WEATHER ROUNDUP FOR SOUTH DAKOTA
NATIONAL WEATHER SERVICE SIOUX FALLS SD
900 AM CST TUE MAR 03 2015

NOTE: "FAIR" INDICATES FEW OR NO CLOUDS BELOW 12,000 FEET WITH NO
SIGNIFICANT WEATHER AND/OR OBSTRUCTIONS TO VISIBILITY.


SDZ001>005-009-010-012>017-031600-
NORTHWEST AND NORTH CENTRAL SOUTH DAKOTA

CITY           SKY/WX    TMP DP  RH WIND       PRES   REMARKS
BUFFALO          N/A      9  -3  58 NW33G39   29.93R WCI -15
FAITH            N/A     11  -1  58 NW24G32   30.00R WCI  -9
MOBRIDGE       CLOUDY    13   2  61 N28G35    29.96R WCI  -8
$$

SDZ012>016-024>037-041>051-057-063-072>074-031600-
SOUTHWEST AND SOUTH CENTRAL SOUTH DAKOTA

CITY           SKY/WX    TMP DP  RH WIND       PRES   REMARKS
RAPID CTY ARPT CLOUDY    14   7  73 N32G43    29.96S WCI  -7
PIERRE         CLOUDY    15   7  70 N26G32    29.99R BLWGSNOWWCI  -4
CUSTER         CLOUDY     8  -1  66 W5        29.80R WCI   0
ELLSWORTH AFB  LGT SNOW  14   9  79 N24G35    29.96  BLWGSNOWWCI  -5
PHILIP         CLOUDY    14   4  64 NW28G37   30.03R WCI  -6
PINE RIDGE     LGT SNOW  14   7  73 N17G24    29.98R WCI  -3
SPEARFISH      LGT SNOW  10   5  79 NW15G22   29.99R WCI  -6
WINNER         HVY SNOW  16  10  77 NW35G40   29.96R VSB 1/4 WCI  -5
$$

SDZ004>011-016>023-039-040-031600-
NORTHEAST SOUTH DAKOTA

CITY           SKY/WX    TMP DP  RH WIND       PRES   REMARKS
ABERDEEN       BLWGSNOW  13   6  74 NW33G40   29.94R VSB 3/4 WCI  -9
WATERTOWN      LGT SNOW  16  11  80 N25G37    29.78R VSB 1   WCI  -3
SISSETON         N/A     16  13  88 N26G37    29.81R WCI  -3
$$

SDZ017-020-022-023-036>040-048>070-031600-
SOUTHEAST SOUTH DAKOTA

CITY           SKY/WX    TMP DP  RH WIND       PRES   REMARKS
SIOUX FALLS    LGT SNOW  26  22  84 W8        29.72R FOG     WCI  18
HURON          LGT SNOW  18  13  80 N26G35    29.87R WCI  -1
CHAMBERLAIN    LGT SNOW  17  13  85 NW29G35   29.93R WCI  -3
MITCHELL       MIX PCPN  20  16  84 NW25G31   29.87R VSB 1   WCI   2
YANKTON        CLOUDY   N/A N/A N/A NW33G39   29.75R
$$

ABBREVIATIONS USED IN REMARKS
   TC - TEMPERATURE IN CELSIUS
  WCI - WIND CHILL INDEX
   HX - HEAT INDEX
  VSB - VISIBILITY



USA.gov is the U.S. government's official web portal to all federal, state and local government web resources and services.